Ketchikan, AK

5:11 PM AKST on February 20, 2019 (GMT -0900)
Ketchikan International

Weather History for PAKT - January, 2019

Change the Weather History Date:

Sunday, January 27, 2019

  Actual Average Record
Temperature  
Mean Temperature 36 °F -  
Max Temperature 39 °F 39 °F 50 °F (2016)
Min Temperature 33 °F 27 °F 9 °F (1969)
Degree Days  
Heating Degree Days 29    
Moisture  
Dew Point 35 °F    
Average Humidity 93    
Maximum Humidity 100    
Minimum Humidity 82    
Precipitation  
Precipitation 0.00 in - - ()
Sea Level Pressure  
Sea Level Pressure 30.51 in    
Wind  
Wind Speed 5 mph (NW)    
Max Wind Speed 13 mph    
Max Gust Speed -    
Visibility 10 miles    
Events      
Averages and records for this station are not official NWS values.
T = Trace of Precipitation, MM = Missing Value Source: NWS Daily Summary

Daily Weather History Graph

Daily Weather History Graph

Search for Another Location

Airport or City:

Astronomy

Jan. 27, 2019 Rise Set
Actual Time 7:47 AM AKST 4:12 PM AKST
Civil Twilight 7:06 AM AKST 4:53 PM AKST
Nautical Twilight 6:21 AM AKST 5:38 PM AKST
Astronomical Twilight 5:38 AM AKST 6:21 PM AKST
Moon 12:04 AM AKST (1/27) 10:51 AM AKST (1/27)
Length of Visible Light 9h 46m
Length of Day
8h 24m
Waning Gibbous, 50% of the Moon is Illuminated
Jan 27
Waning Gibbous
Jan 27
Last Quarter
Feb 4
New
Feb 12
First Quarter
Feb 19
Full

Hourly Weather History & Observations

Time (AKST) Temp. Windchill Dew Point Humidity Pressure Visibility Wind Dir Wind Speed Gust Speed Precip Events Conditions
12:53 AM 35.1 °F - 33.1 °F 92% 30.49 in 10.0 mi Calm Calm - N/A   Clear
1:53 AM 35.1 °F 32.2 °F 33.1 °F 92% 30.50 in 10.0 mi WNW 3.5 mph - N/A   Clear
2:53 AM 34.0 °F 31.0 °F 33.1 °F 96% 30.51 in 10.0 mi West 3.5 mph - N/A   Clear
3:53 AM 36.0 °F 29.6 °F 34.0 °F 93% 30.51 in 10.0 mi North 8.1 mph - N/A   Clear
4:53 AM 34.0 °F - 33.1 °F 96% 30.51 in 10.0 mi Calm Calm - N/A   Clear
5:53 AM 35.1 °F 29.3 °F 34.0 °F 96% 30.51 in 10.0 mi NW 6.9 mph - N/A   Clear
6:05 AM 34.0 °F - 34.0 °F 100% 30.50 in 10.0 mi Calm Calm - N/A   Clear
6:53 AM 33.8 °F - 32.0 °F 93% 30.52 in 10.0 mi Calm Calm - N/A   Partly Cloudy
7:53 AM 33.8 °F 29.6 °F 33.8 °F 100% 30.53 in 10.0 mi NW 4.6 mph - N/A   Scattered Clouds
8:00 AM 34.0 °F 29.8 °F 34.0 °F 100% 30.53 in 10.0 mi NW 4.6 mph - N/A   Mostly Cloudy
8:22 AM 35.1 °F 30.1 °F 34.0 °F 96% 30.53 in 10.0 mi NW 5.8 mph - N/A   Overcast
8:53 AM 35.6 °F 29.9 °F 35.6 °F 100% 30.53 in 10.0 mi NW 6.9 mph - N/A   Scattered Clouds
9:53 AM 37.4 °F 30.8 °F 35.6 °F 93% 30.55 in 10.0 mi NNW 9.2 mph - N/A   Scattered Clouds
11:53 AM 39.2 °F 32.5 °F 35.6 °F 87% 30.55 in 10.0 mi NNW 10.4 mph - N/A   Partly Cloudy
12:53 PM 39.2 °F 32.5 °F 37.4 °F 93% 30.54 in 10.0 mi NNW 10.4 mph - N/A   Partly Cloudy
1:53 PM 39.9 °F 35.8 °F 37.0 °F 89% 30.53 in 10.0 mi North 5.8 mph - N/A   Partly Cloudy
2:53 PM 39.0 °F 34.0 °F 36.0 °F 89% 30.52 in 10.0 mi NNW 6.9 mph - N/A   Partly Cloudy
3:53 PM 39.0 °F 32.8 °F 35.1 °F 86% 30.51 in 10.0 mi NNW 9.2 mph - N/A   Clear
4:53 PM 37.9 °F 32.1 °F 36.0 °F 93% 30.50 in 10.0 mi North 8.1 mph - N/A   Clear
5:53 PM 39.0 °F 31.4 °F 34.0 °F 82% 30.50 in 10.0 mi NNW 12.7 mph - N/A   Clear
6:53 PM 37.4 °F 30.8 °F 35.6 °F 93% 30.48 in 10.0 mi NNW 9.2 mph - N/A   Clear
7:53 PM 37.0 °F 31.0 °F 35.1 °F 93% 30.48 in 10.0 mi NNW 8.1 mph - N/A   Clear
8:53 PM 35.1 °F 31.0 °F 34.0 °F 96% 30.47 in 10.0 mi WNW 4.6 mph - N/A   Clear
9:53 PM 36.0 °F 31.1 °F 34.0 °F 93% 30.46 in 10.0 mi NW 5.8 mph - N/A   Clear
10:53 PM 36.0 °F 31.1 °F 34.0 °F 93% 30.46 in 10.0 mi WNW 5.8 mph - N/A   Clear
11:53 PM 37.0 °F 33.3 °F 34.0 °F 89% 30.46 in 10.0 mi NW 4.6 mph - N/A   Clear